Location: Kerb�bon
(47.7970°N, 3.3487°W)
Time: 12:20:41
(UTC+00:00)

Cosmos 1437 - Pass Details

Date: 12 May 2021
Orbit: 337 x 343 km, 81.2° (Epoch: 18 June)

Event Time Altitude Azimuth Distance (km) Brightness Sun altitude
Exits shadow 21:26:53 - 212° (SSW) 1,634 5.6 -14.5°
Reaches altitude 10° 21:27:39 10° 216° (SW) 1,326 5.1 -14.5°
Maximum altitude 21:30:20 36° 285° (WNW) 593 4.0 -14.8°
Drops below altitude 10° 21:33:02 10° 355° (N) 1,337 6.2 -15.1°
Sets 21:35:06 0° 4° (N) 2,186 7.2 -15.3°
